Weather History for YSSY - May, 2014

Change the Weather History Date:

Saturday, May 3, 2014

  Actual Average Record
Temperature  
Mean Temperature 56 °F -  
Max Temperature 59 °F 68 °F 84 °F (2007)
Min Temperature 53 °F 51 °F 50 °F (1999)
Degree Days  
Heating Degree Days 9    
Growing Degree Days 6 (Base 50)    
Moisture  
Dew Point 40 °F    
Average Humidity 51    
Maximum Humidity 82    
Minimum Humidity 29    
Precipitation  
Precipitation 0.16 in 0.12 in - ()
Sea Level Pressure  
Sea Level Pressure 29.43 in    
Wind  
Wind Speed 12 mph ()    
Max Wind Speed 23 mph    
Max Gust Speed 31 mph    
Visibility 8.2 miles    
Events Rain    
Averages and records for this station are not official NWS values.
T = Trace of Precipitation, MM = Missing Value Source: Averaged Metar Reports

Daily Weather History Graph

Daily Weather History Graph

Search for Another Location

Airport or City:

Trip Planner

Search our weather history database for the weather conditions in past years. The results will help you decide how hot, cold, wet, or windy it might be!

Date:

Astronomy

May. 03, 2014 Rise Set
Actual Time 6:31 AM AEST 5:12 PM AEST
Civil Twilight 6:05 AM AEST 5:38 PM AEST
Nautical Twilight 5:35 AM AEST 6:08 PM AEST
Astronomical Twilight 5:06 AM AEST 6:37 PM AEST
Moon 9:52 AM AEST (5/3) 8:26 PM AEST (5/3)
Length of Visible Light 11h 33m
Length of Day
10h 41m
Waxing Crescent, 15% of the Moon is Illuminated
May 3
Waxing Crescent
May 7
First Quarter
May 15
Full
May 21
Last Quarter
May 29
New

Hourly Weather History & Observations

Time (AEST) Temp. Dew Point Humidity Pressure Visibility Wind Dir Wind Speed Gust Speed Precip Events Conditions
12:00 AM 59 °F 41 °F 39% 29.52 in 19 mi NW 8.1 mph - -   Partly Cloudy
12:00 AM 59.0 °F 41.0 °F 51% 29.50 in - NW 8.1 mph - N/A   Clear
12:30 AM 59.0 °F 39.2 °F 48% 29.50 in - WNW 6.9 mph - N/A   Clear
1:00 AM 58 °F 40 °F 41% 29.50 in - NW 8.1 mph - -  
1:00 AM 59.0 °F 41.0 °F 51% 29.47 in - NW 8.1 mph - N/A   Clear
1:30 AM 59.0 °F 41.0 °F 51% 29.47 in - NW 6.9 mph - N/A   Clear
2:00 AM 57 °F 41 °F 43% 29.48 in - NW 6.9 mph - -  
2:30 AM 57.2 °F 42.8 °F 59% 29.44 in - West 8.1 mph - N/A   Clear
3:00 AM 57 °F 43 °F 48% 29.46 in 19 mi WNW 6.9 mph - -   Partly Cloudy
3:00 AM 57.2 °F 42.8 °F 59% 29.44 in - WNW 6.9 mph - N/A   Clear
4:00 AM 56 °F 43 °F 51% 29.45 in - NW 9.2 mph - -  
4:00 AM 57.2 °F 42.8 °F 59% 29.44 in - NW 9.2 mph - N/A   Clear
4:30 AM 57.2 °F 42.8 °F 59% 29.44 in - NW 9.2 mph - N/A   Clear
5:00 AM 56 °F 42 °F 50% 29.44 in - WNW 8.1 mph - -  
5:00 AM 55.4 °F 42.8 °F 63% 29.44 in - WNW 8.1 mph - N/A   Clear
5:30 AM 57.2 °F 42.8 °F 59% 29.42 in - WNW 8.1 mph - N/A   Clear
6:00 AM 57 °F 42 °F 46% 29.43 in 19 mi NW 6.9 mph - -   Mostly Cloudy
6:00 AM 57.2 °F 42.8 °F 59% 29.42 in 6.2 mi NW 6.9 mph - N/A   Mostly Cloudy
6:30 AM 57.2 °F 44.6 °F 63% 29.42 in 6.2 mi NW 10.4 mph - N/A Rain Light Rain
7:00 AM 55 °F 47 °F 65% 29.45 in - NNW 15.0 mph - -  
7:00 AM 55.4 °F 46.4 °F 72% 29.44 in 5.6 mi NNW 15.0 mph - N/A Rain Light Rain
7:30 AM 53.6 °F 48.2 °F 82% 29.44 in 6.2 mi NW 11.5 mph - N/A Rain Light Rain
8:00 AM 54 °F 49 °F 76% 29.44 in - WNW 12.7 mph - -  
8:00 AM 53.6 °F 48.2 °F 82% 29.44 in 6.2 mi WNW 12.7 mph - N/A Rain Light Rain
8:30 AM 55.4 °F 50.0 °F 82% 29.44 in 6.2 mi NNW 9.2 mph - N/A Rain Light Rain
9:00 AM 55 °F 49 °F 76% 29.43 in 11 mi NW 10.4 mph - - Rain Light Rain
9:00 AM 55.4 °F 50.0 °F 82% 29.42 in 6.2 mi NW 10.4 mph - N/A Rain Light Rain
9:30 AM 55.4 °F 50.0 °F 82% 29.42 in 6.2 mi WNW 10.4 mph - N/A Rain Light Rain
10:00 AM 57 °F 49 °F 66% 29.42 in - WNW 15.0 mph - -  
10:00 AM 57.2 °F 48.2 °F 72% 29.42 in 6.2 mi WNW 15.0 mph - N/A   Mostly Cloudy
10:30 AM 55.4 °F 44.6 °F 67% 29.39 in 6.2 mi NW 19.6 mph - N/A   Mostly Cloudy
11:00 AM 56 °F 47 °F 63% 29.41 in - WNW 20.7 mph - -  
11:00 AM 57.2 °F 46.4 °F 67% 29.39 in 6.2 mi WNW 20.7 mph - N/A   Mostly Cloudy
11:30 AM 57.2 °F 44.6 °F 63% 29.39 in 6.2 mi West 19.6 mph - N/A   Mostly Cloudy
11:43 AM 57.2 °F 41.0 °F 55% 29.39 in 6.2 mi West 19.6 mph 31.1 mph N/A   Mostly Cloudy
12:00 PM 58 °F 40 °F 41% 29.39 in 19 mi West 23.0 mph - -   Partly Cloudy
12:00 PM 57.2 °F 41.0 °F 55% 29.39 in 6.2 mi West 23.0 mph - N/A   Mostly Cloudy
12:30 PM 57.2 °F 41.0 °F 55% 29.36 in 6.2 mi West 18.4 mph - N/A   Mostly Cloudy
1:00 PM 59 °F 41 °F 39% 29.38 in - West 19.6 mph - -  
1:00 PM 59.0 °F 41.0 °F 51% 29.36 in 6.2 mi West 19.6 mph - N/A   Mostly Cloudy
1:30 PM 59.0 °F 37.4 °F 45% 29.36 in 6.2 mi WNW 21.9 mph - N/A   Mostly Cloudy
2:00 PM 59 °F 35 °F 29% 29.37 in - WNW 20.7 mph - -  
2:00 PM 59.0 °F 35.6 °F 42% 29.36 in 6.2 mi WNW 20.7 mph - N/A   Mostly Cloudy
2:30 PM 59.0 °F 35.6 °F 42% 29.36 in 6.2 mi WNW 20.7 mph - N/A   Mostly Cloudy
3:00 PM 58 °F 34 °F 29% 29.38 in 25 mi WNW 23.0 mph - -   Partly Cloudy
3:00 PM 59.0 °F 33.8 °F 39% 29.36 in 6.2 mi WNW 23.0 mph - N/A   Mostly Cloudy
4:00 PM 58 °F 37 °F 33% 29.40 in - West 20.7 mph - -  
4:00 PM 59.0 °F 37.4 °F 45% 29.39 in 6.2 mi West 20.7 mph - N/A   Mostly Cloudy
4:30 PM 59.0 °F 37.4 °F 45% 29.39 in 6.2 mi West 18.4 mph - N/A   Mostly Cloudy
5:00 PM 58 °F 34 °F 29% 29.41 in - WNW 16.1 mph - -  
5:00 PM 59.0 °F 33.8 °F 39% 29.39 in 6.2 mi WNW 16.1 mph - N/A   Mostly Cloudy
5:30 PM 57.2 °F 33.8 °F 41% 29.42 in 6.2 mi WNW 19.6 mph - N/A   Mostly Cloudy
6:00 PM 58 °F 35 °F 29% 29.45 in 16 mi WNW 18.4 mph - - Rain Light Rain
6:00 PM 57.2 °F 35.6 °F 44% 29.44 in 6.2 mi WNW 18.4 mph - N/A Rain Light Rain
6:30 PM 59.0 °F 35.6 °F 42% 29.44 in 6.2 mi NW 17.3 mph - N/A Rain Light Rain
7:00 PM 57 °F 34 °F 30% 29.46 in - WNW 19.6 mph - -  
7:00 PM 57.2 °F 33.8 °F 41% 29.44 in 6.2 mi WNW 19.6 mph - N/A Rain Light Rain
7:30 PM 57.2 °F 33.8 °F 41% 29.44 in 6.2 mi NW 20.7 mph - N/A   Unknown
8:00 PM 57 °F 34 °F 29% 29.46 in - NW 19.6 mph - -  
8:00 PM 57.2 °F 33.8 °F 41% 29.44 in - NW 19.6 mph - N/A   Clear
8:30 PM 57.2 °F 35.6 °F 44% 29.44 in - NW 21.9 mph - N/A   Clear
9:00 PM 56 °F 35 °F 32% 29.47 in 19 mi NW 21.9 mph - -   Partly Cloudy
9:00 PM 57.2 °F 35.6 °F 44% 29.44 in - NW 21.9 mph - N/A   Clear
9:30 PM 57.2 °F 35.6 °F 44% 29.44 in 6.2 mi NW 21.9 mph - N/A   Unknown
10:00 PM 56 °F 36 °F 34% 29.47 in - NW 21.9 mph - -  
10:00 PM 57.2 °F 35.6 °F 44% 29.44 in 6.2 mi NW 21.9 mph - N/A   Unknown
10:30 PM 57.2 °F 35.6 °F 44% 29.47 in 6.2 mi WNW 17.3 mph - N/A Rain Light Rain
11:00 PM 56 °F 36 °F 35% 29.47 in - NW 16.1 mph - -  
11:00 PM 57.2 °F 35.6 °F 44% 29.44 in - NW 16.1 mph - N/A   Clear
11:30 PM 57.2 °F 35.6 °F 44% 29.44 in 6.2 mi NW 19.6 mph - N/A   Unknown